| time (UTC) | temp C | wind direction | speed KPH | gust KPH | rain 1hr cm | rain 24hr cm | rain mn cm | humidity % | barometer mb |
| 20260504160308 | 18 | 330 | 3.2 | 9.7 | 0.00 | 0.00 | 0.00 | 36 | 1017.7 |
| 20260504150733 | 17 | 264 | 4.8 | 9.7 | 0.00 | 0.00 | 0.00 | 35 | 1018.4 |
| 20260504150230 | 17 | 255 | 1.6 | 6.4 | 0.00 | 0.00 | 0.00 | 35 | 1018.6 |
| 20260504141159 | 15 | 231 | 6.4 | 16.1 | 0.00 | 0.00 | 0.00 | 36 | 1018.6 |
| 20260504140656 | 15 | 240 | 3.2 | 12.9 | 0.00 | 0.00 | 0.00 | 38 | 1018.7 |
| 20260504140152 | 15 | 327 | 6.4 | 8.0 | 0.00 | 0.00 | 0.00 | 36 | 1018.8 |
| 20260504130620 | 13 | 235 | 6.4 | 12.9 | 0.00 | 0.00 | 0.00 | 41 | 1019.2 |
| 20260504130117 | 13 | 282 | 6.4 | 8.0 | 0.00 | 0.00 | 0.00 | 41 | 1019.3 |
| 20260504110508 | 8 | 226 | 3.2 | 4.8 | 0.00 | 0.00 | 0.00 | 59 | 1019.5 |
| 20260504100430 | 7 | 207 | 3.2 | 6.4 | 0.00 | 0.00 | 0.00 | 58 | 1019.1 |
| 20260504081823 | 7 | 217 | 3.2 | 6.4 | 0.00 | 0.00 | 0.00 | 58 | 1018.7 |
| 20260504081320 | 7 | 208 | 3.2 | 4.8 | 0.00 | 0.00 | 0.00 | 58 | 1018.8 |
| 20260504080816 | 7 | 197 | 3.2 | 4.8 | 0.00 | 0.00 | 0.00 | 59 | 1018.8 |
| 20260504080313 | 7 | 212 | 3.2 | 4.8 | 0.00 | 0.00 | 0.00 | 59 | 1018.7 |
| 20260504070235 | 7 | 214 | 3.2 | 4.8 | 0.00 | 0.00 | 0.00 | 57 | 1018.5 |
| 20260504060156 | 8 | 198 | 3.2 | 3.2 | 0.00 | 0.00 | 0.00 | 51 | 1018.5 |
| 20260504050623 | 5 | 181 | 1.6 | 4.8 | 0.00 | 0.00 | 0.00 | 70 | 1018.3 |
| 20260504050120 | 6 | 274 | 1.6 | 3.2 | 0.00 | 0.00 | 0.00 | 68 | 1018.3 |
| 20260504045617 | 7 | 221 | 1.6 | 6.4 | 0.00 | 0.00 | 0.00 | 64 | 1018.4 |
| 20260504045112 | 7 | 201 | 4.8 | 4.8 | 0.00 | 0.00 | 0.00 | 58 | 1018.3 |
| 20260504044610 | 7 | 184 | 1.6 | 4.8 | 0.00 | 0.00 | 0.00 | 58 | 1018.2 |
| 20260504044106 | 6 | 173 | 4.8 | 6.4 | 0.00 | 0.00 | 0.00 | 60 | 1018.2 |
| 20260504043604 | 5 | 185 | 3.2 | 4.8 | 0.00 | 0.00 | 0.00 | 68 | 1018.3 |
| 20260504043102 | 6 | 185 | 1.6 | 3.2 | 0.00 | 0.00 | 0.00 | 68 | 1018.2 |
| 20260504042559 | 8 | 147 | 0.0 | 4.8 | 0.00 | 0.00 | 0.00 | 50 | 1018.2 |
| 20260504042055 | 7 | 191 | 3.2 | 4.8 | 0.00 | 0.00 | 0.00 | 56 | 1018.1 |
| 20260504041551 | 7 | 152 | 0.0 | 3.2 | 0.00 | 0.00 | 0.00 | 60 | 1018.1 |
| 20260504041048 | 8 | 166 | 1.6 | 3.2 | 0.00 | 0.00 | 0.00 | 62 | 1018.2 |
| 20260504040545 | 8 | 201 | 3.2 | 4.8 | 0.00 | 0.00 | 0.00 | 52 | 1018.2 |
| 20260504040042 | 7 | 177 | 3.2 | 6.4 | 0.00 | 0.00 | 0.00 | 58 | 1018.1 |
| 20260504035538 | 7 | 164 | 3.2 | 6.4 | 0.00 | 0.00 | 0.00 | 57 | 1018.2 |
| 20260504035035 | 6 | 189 | 3.2 | 6.4 | 0.00 | 0.00 | 0.00 | 65 | 1018.1 |
| 20260504034533 | 6 | 199 | 1.6 | 4.8 | 0.00 | 0.00 | 0.00 | 64 | 1018.1 |
| 20260504034029 | 7 | 151 | 1.6 | 3.2 | 0.00 | 0.00 | 0.00 | 61 | 1018.1 |
| 20260504033528 | 7 | 178 | 3.2 | 4.8 | 0.00 | 0.00 | 0.00 | 54 | 1018.2 |
| 20260504033025 | 7 | 150 | 1.6 | 6.4 | 0.00 | 0.00 | 0.00 | 61 | 1018.0 |
| 20260504032521 | 7 | 199 | 3.2 | 3.2 | 0.00 | 0.00 | 0.00 | 61 | 1018.2 |
| 20260504032018 | 7 | 199 | 3.2 | 3.2 | 0.00 | 0.00 | 0.00 | 56 | 1018.0 |
| 20260504031515 | 8 | 205 | 3.2 | 3.2 | 0.00 | 0.00 | 0.00 | 57 | 1018.0 |
| 20260504031011 | 8 | 203 | 3.2 | 3.2 | 0.00 | 0.00 | 0.00 | 58 | 1018.1 |
| 20260504030509 | 8 | 183 | 3.2 | 6.4 | 0.00 | 0.00 | 0.00 | 55 | 1018.1 |
| 20260504030004 | 8 | 188 | 4.8 | 4.8 | 0.00 | 0.00 | 0.00 | 50 | 1018.0 |
| 20260504025501 | 8 | 160 | 3.2 | 6.4 | 0.00 | 0.00 | 0.00 | 46 | 1017.9 |
| 20260504024958 | 8 | 191 | 3.2 | 6.4 | 0.00 | 0.00 | 0.00 | 47 | 1018.1 |
| 20260504024455 | 8 | 183 | 3.2 | 4.8 | 0.00 | 0.00 | 0.00 | 48 | 1018.1 |
| 20260504023953 | 8 | 190 | 4.8 | 6.4 | 0.00 | 0.00 | 0.00 | 48 | 1018.1 |
| 20260504023449 | 8 | 197 | 3.2 | 4.8 | 0.00 | 0.00 | 0.00 | 48 | 1018.1 |
| 20260504022944 | 8 | 183 | 3.2 | 4.8 | 0.00 | 0.00 | 0.00 | 47 | 1018.3 |
| 20260504022441 | 8 | 139 | 3.2 | 4.8 | 0.00 | 0.00 | 0.00 | 45 | 1018.1 |
| 20260504021938 | 8 | 182 | 3.2 | 4.8 | 0.00 | 0.00 | 0.00 | 45 | 1018.1 |
| 20260504021435 | 9 | 183 | 1.6 | 3.2 | 0.00 | 0.00 | 0.00 | 45 | 1018.1 |
| 20260504020932 | 9 | 172 | 3.2 | 3.2 | 0.00 | 0.00 | 0.00 | 45 | 1018.2 |
| 20260504020429 | 9 | 205 | 0.0 | 3.2 | 0.00 | 0.00 | 0.00 | 47 | 1018.0 |
| 20260504015926 | 9 | 156 | 3.2 | 6.4 | 0.00 | 0.00 | 0.00 | 43 | 1018.0 |
| 20260504015421 | 9 | 175 | 3.2 | 6.4 | 0.00 | 0.00 | 0.00 | 46 | 1017.9 |
| 20260504014918 | 8 | 193 | 3.2 | 6.4 | 0.00 | 0.00 | 0.00 | 45 | 1018.0 |
| 20260504014414 | 8 | 201 | 3.2 | 6.4 | 0.00 | 0.00 | 0.00 | 47 | 1018.0 |
| 20260504013911 | 8 | 175 | 3.2 | 4.8 | 0.00 | 0.00 | 0.00 | 46 | 1018.0 |
| 20260504013409 | 8 | 192 | 3.2 | 4.8 | 0.00 | 0.00 | 0.00 | 45 | 1018.0 |
| 20260504012905 | 9 | 158 | 1.6 | 3.2 | 0.00 | 0.00 | 0.00 | 42 | 1018.0 |
| 20260504012403 | 9 | 187 | 1.6 | 3.2 | 0.00 | 0.00 | 0.00 | 42 | 1017.8 |
| 20260504011900 | 9 | 192 | 0.0 | 3.2 | 0.00 | 0.00 | 0.00 | 42 | 1017.9 |
| 20260504011356 | 9 | 277 | 0.0 | 3.2 | 0.00 | 0.00 | 0.00 | 42 | 1017.8 |
| 20260504010847 | 9 | 239 | 0.0 | 3.2 | 0.00 | 0.00 | 0.00 | 41 | 1017.7 |
| 20260504010342 | 9 | 180 | 1.6 | 3.2 | 0.00 | 0.00 | 0.00 | 42 | 1017.6 |
| 20260504005839 | 10 | 191 | 3.2 | 3.2 | 0.00 | 0.00 | 0.00 | 43 | 1017.5 |
| 20260504005336 | 10 | 194 | 1.6 | 3.2 | 0.00 | 0.00 | 0.00 | 41 | 1017.5 |
| 20260504004834 | 10 | 207 | 1.6 | 3.2 | 0.00 | 0.00 | 0.00 | 40 | 1017.2 |
| 20260504004331 | 10 | 247 | 1.6 | 3.2 | 0.00 | 0.00 | 0.00 | 38 | 1017.3 |
| 20260504003827 | 10 | 235 | 3.2 | 3.2 | 0.00 | 0.00 | 0.00 | 37 | 1017.2 |
| 20260504003325 | 10 | 223 | 1.6 | 3.2 | 0.00 | 0.00 | 0.00 | 37 | 1017.2 |
| 20260504002821 | 10 | 97 | 0.0 | 3.2 | 0.00 | 0.00 | 0.00 | 36 | 1017.0 |
| 20260504002318 | 11 | 241 | 3.2 | 3.2 | 0.00 | 0.00 | 0.00 | 35 | 1017.0 |
| 20260504001816 | 11 | 162 | 0.0 | 3.2 | 0.00 | 0.00 | 0.00 | 34 | 1016.9 |
| 20260504001313 | 11 | 272 | 0.0 | 3.2 | 0.00 | 0.00 | 0.00 | 34 | 1016.7 |
| 20260504000810 | 11 | 209 | 1.6 | 3.2 | 0.00 | 0.00 | 0.00 | 35 | 1016.7 |
| 20260504000307 | 11 | 222 | 3.2 | 4.8 | 0.00 | 0.00 | 0.00 | 35 | 1016.7 |
| 20260503235804 | 11 | 229 | 3.2 | 3.2 | 0.00 | 0.00 | 0.00 | 34 | 1016.6 |
| 20260503235301 | 11 | 253 | 1.6 | 3.2 | 0.00 | 0.00 | 0.00 | 33 | 1016.6 |
| 20260503234758 | 11 | 230 | 0.0 | 3.2 | 0.00 | 0.00 | 0.00 | 35 | 1016.5 |
| 20260503234256 | 11 | 268 | 3.2 | 3.2 | 0.00 | 0.00 | 0.00 | 35 | 1016.4 |
| 20260503233754 | 11 | 254 | 3.2 | 3.2 | 0.00 | 0.00 | 0.00 | 35 | 1016.6 |
| 20260503233249 | 11 | 248 | 0.0 | 4.8 | 0.00 | 0.00 | 0.00 | 34 | 1016.3 |
| 20260503232746 | 11 | 295 | 0.0 | 4.8 | 0.00 | 0.00 | 0.00 | 32 | 1016.1 |
| 20260503232244 | 12 | 232 | 3.2 | 4.8 | 0.00 | 0.00 | 0.00 | 33 | 1016.1 |
| 20260503231742 | 12 | 202 | 4.8 | 4.8 | 0.00 | 0.00 | 0.00 | 31 | 1016.1 |
| 20260503231238 | 12 | 215 | 1.6 | 6.4 | 0.00 | 0.00 | 0.00 | 32 | 1016.1 |
| 20260503230734 | 12 | 308 | 0.0 | 6.4 | 0.00 | 0.00 | 0.00 | 29 | 1016.0 |
| 20260503230232 | 12 | 336 | 0.0 | 8.0 | 0.00 | 0.00 | 0.00 | 31 | 1016.1 |
| 20260503225729 | 12 | 204 | 3.2 | 4.8 | 0.00 | 0.00 | 0.00 | 30 | 1015.9 |
| 20260503225229 | 12 | 232 | 0.0 | 6.4 | 0.00 | 0.00 | 0.00 | 30 | 1015.9 |
| 20260503224727 | 12 | 260 | 4.8 | 9.7 | 0.00 | 0.00 | 0.00 | 30 | 1015.9 |
| 20260503224225 | 12 | 285 | 0.0 | 6.4 | 0.00 | 0.00 | 0.00 | 29 | 1015.8 |
| 20260503223722 | 12 | 24 | 4.8 | 8.0 | 0.00 | 0.00 | 0.00 | 31 | 1015.8 |
| 20260503223219 | 12 | 144 | 3.2 | 11.3 | 0.00 | 0.00 | 0.00 | 29 | 1015.8 |
| 20260503222715 | 13 | 230 | 8.0 | 8.0 | 0.00 | 0.00 | 0.00 | 30 | 1015.9 |
| 20260503222213 | 13 | 295 | 1.6 | 11.3 | 0.00 | 0.00 | 0.00 | 28 | 1015.9 |
| 20260503221711 | 13 | 296 | 3.2 | 9.7 | 0.00 | 0.00 | 0.00 | 29 | 1015.8 |
| 20260503221209 | 13 | 334 | 3.2 | 6.4 | 0.00 | 0.00 | 0.00 | 29 | 1015.9 |
| 20260503220705 | 13 | 244 | 6.4 | 6.4 | 0.00 | 0.00 | 0.00 | 30 | 1015.8 |
| 20260503220201 | 13 | 262 | 3.2 | 6.4 | 0.00 | 0.00 | 0.00 | 28 | 1015.7 |
| 20260503215658 | 14 | 204 | 1.6 | 8.0 | 0.00 | 0.00 | 0.00 | 30 | 1015.7 |
| 20260503215155 | 13 | 326 | 3.2 | 12.9 | 0.00 | 0.00 | 0.00 | 32 | 1015.7 |
| 20260503214654 | 13 | 164 | 3.2 | 9.7 | 0.00 | 0.00 | 0.00 | 30 | 1015.9 |
| 20260503214149 | 14 | 312 | 6.4 | 12.9 | 0.00 | 0.00 | 0.00 | 29 | 1015.8 |
| 20260503213644 | 13 | 205 | 3.2 | 8.0 | 0.00 | 0.00 | 0.00 | 29 | 1015.8 |
| 20260503213140 | 13 | 259 | 6.4 | 12.9 | 0.00 | 0.00 | 0.00 | 29 | 1015.8 |
| 20260503212638 | 13 | 252 | 6.4 | 11.3 | 0.00 | 0.00 | 0.00 | 29 | 1015.7 |
| 20260503212135 | 14 | 301 | 3.2 | 6.4 | 0.00 | 0.00 | 0.00 | 31 | 1015.7 |
| 20260503211632 | 15 | 238 | 4.8 | 8.0 | 0.00 | 0.00 | 0.00 | 30 | 1015.4 |
| 20260503211127 | 15 | 234 | 3.2 | 4.8 | 0.00 | 0.00 | 0.00 | 30 | 1015.7 |
| 20260503210623 | 15 | 295 | 4.8 | 12.9 | 0.00 | 0.00 | 0.00 | 30 | 1015.8 |
| 20260503210120 | 14 | 313 | 3.2 | 8.0 | 0.00 | 0.00 | 0.00 | 30 | 1015.7 |
| 20260503205616 | 14 | 245 | 6.4 | 9.7 | 0.00 | 0.00 | 0.00 | 31 | 1016.0 |
| 20260503205112 | 13 | 206 | 3.2 | 14.5 | 0.00 | 0.00 | 0.00 | 32 | 1016.0 |
| 20260503204609 | 14 | 347 | 6.4 | 9.7 | 0.00 | 0.00 | 0.00 | 31 | 1015.9 |
| 20260503204107 | 13 | 263 | 3.2 | 11.3 | 0.00 | 0.00 | 0.00 | 31 | 1015.8 |
| 20260503203603 | 12 | 221 | 6.4 | 14.5 | 0.00 | 0.00 | 0.00 | 35 | 1015.8 |
| 20260503203101 | 13 | 305 | 8.0 | 17.7 | 0.00 | 0.00 | 0.00 | 32 | 1015.6 |
| 20260503202559 | 13 | 217 | 9.7 | 11.3 | 0.00 | 0.00 | 0.00 | 33 | 1015.7 |
| 20260503202057 | 13 | 357 | 3.2 | 6.4 | 0.00 | 0.00 | 0.00 | 32 | 1015.6 |
| 20260503201554 | 13 | 228 | 3.2 | 11.3 | 0.00 | 0.00 | 0.00 | 33 | 1015.8 |
| 20260503201051 | 14 | 185 | 3.2 | 19.3 | 0.00 | 0.00 | 0.00 | 31 | 1015.8 |
| 20260503200547 | 13 | 317 | 4.8 | 8.0 | 0.00 | 0.00 | 0.00 | 34 | 1015.8 |
| 20260503200044 | 13 | 116 | 0.0 | 9.7 | 0.00 | 0.00 | 0.00 | 35 | 1015.7 |
| 20260503195541 | 12 | 319 | 4.8 | 9.7 | 0.00 | 0.00 | 0.00 | 38 | 1015.7 |
| 20260503195038 | 13 | 318 | 4.8 | 19.3 | 0.00 | 0.00 | 0.00 | 34 | 1016.0 |
| 20260503194535 | 12 | 303 | 4.8 | 9.7 | 0.00 | 0.00 | 0.00 | 33 | 1016.0 |
| 20260503194035 | 12 | 262 | 4.8 | 9.7 | 0.00 | 0.00 | 0.00 | 35 | 1016.0 |
| 20260503193532 | 11 | 298 | 0.0 | 8.0 | 0.00 | 0.00 | 0.00 | 35 | 1016.1 |
| 20260503193027 | 12 | 285 | 4.8 | 11.3 | 0.00 | 0.00 | 0.00 | 35 | 1016.1 |
| 20260503192523 | 12 | 24 | 6.4 | 9.7 | 0.00 | 0.00 | 0.00 | 35 | 1016.0 |
| 20260503192019 | 13 | 233 | 11.3 | 19.3 | 0.00 | 0.00 | 0.00 | 35 | 1016.3 |
| 20260503191516 | 13 | 300 | 3.2 | 17.7 | 0.00 | 0.00 | 0.00 | 33 | 1016.2 |
| 20260503191013 | 13 | 339 | 8.0 | 14.5 | 0.00 | 0.00 | 0.00 | 36 | 1016.3 |
| 20260503190510 | 13 | 268 | 6.4 | 12.9 | 0.00 | 0.00 | 0.00 | 33 | 1016.0 |
| 20260503190008 | 13 | 258 | 8.0 | 17.7 | 0.00 | 0.00 | 0.00 | 33 | 1016.2 |
| 20260503185504 | 13 | 246 | 4.8 | 12.9 | 0.00 | 0.00 | 0.00 | 36 | 1016.0 |
| 20260503185003 | 13 | 296 | 4.8 | 16.1 | 0.00 | 0.00 | 0.00 | 34 | 1016.2 |
| 20260503184500 | 12 | 301 | 8.0 | 12.9 | 0.00 | 0.00 | 0.00 | 34 | 1016.1 |
| 20260503183956 | 13 | 189 | 3.2 | 14.5 | 0.00 | 0.00 | 0.00 | 37 | 1016.2 |
| 20260503183453 | 12 | 240 | 6.4 | 11.3 | 0.00 | 0.00 | 0.00 | 36 | 1016.3 |
| 20260503182950 | 11 | 301 | 9.7 | 12.9 | 0.00 | 0.00 | 0.00 | 38 | 1016.3 |
| 20260503182449 | 11 | 335 | 6.4 | 16.1 | 0.00 | 0.00 | 0.00 | 39 | 1016.2 |
| 20260503181946 | 12 | 246 | 6.4 | 14.5 | 0.00 | 0.00 | 0.00 | 36 | 1016.3 |
| 20260503181443 | 11 | 315 | 4.8 | 16.1 | 0.00 | 0.00 | 0.00 | 36 | 1016.3 |
| 20260503180939 | 12 | 284 | 4.8 | 11.3 | 0.00 | 0.00 | 0.00 | 36 | 1016.1 |
| 20260503180437 | 12 | 327 | 8.0 | 12.9 | 0.00 | 0.00 | 0.00 | 35 | 1016.4 |
| 20260503175934 | 11 | 288 | 6.4 | 9.7 | 0.00 | 0.00 | 0.00 | 38 | 1016.1 |
| 20260503175432 | 11 | 326 | 4.8 | 9.7 | 0.00 | 0.00 | 0.00 | 36 | 1016.2 |
| 20260503174927 | 11 | 250 | 8.0 | 17.7 | 0.00 | 0.00 | 0.00 | 36 | 1016.2 |
| 20260503174426 | 12 | 306 | 1.6 | 12.9 | 0.00 | 0.00 | 0.00 | 35 | 1016.2 |
| 20260503173926 | 12 | 8 | 3.2 | 11.3 | 0.00 | 0.00 | 0.00 | 39 | 1016.4 |
| 20260503173422 | 11 | 65 | 3.2 | 11.3 | 0.00 | 0.00 | 0.00 | 39 | 1016.2 |
| 20260503172919 | 11 | 230 | 3.2 | 9.7 | 0.00 | 0.00 | 0.00 | 35 | 1016.3 |
| 20260503172417 | 12 | 300 | 3.2 | 9.7 | 0.00 | 0.00 | 0.00 | 34 | 1016.4 |
| 20260503171912 | 11 | 83 | 4.8 | 16.1 | 0.00 | 0.00 | 0.00 | 35 | 1016.1 |
| 20260503171409 | 11 | 333 | 11.3 | 16.1 | 0.00 | 0.00 | 0.00 | 34 | 1016.0 |
| 20260503170907 | 12 | 293 | 3.2 | 16.1 | 0.00 | 0.00 | 0.00 | 37 | 1016.5 |
| 20260503170403 | 10 | 311 | 8.0 | 9.7 | 0.00 | 0.00 | 0.00 | 35 | 1016.2 |